Find Starlink 32750

NORAD ID: 62572 Int'l Des: 2025-006 Owner: SPXS Country: US Constellation: starlink operational
LEOCIRCULAR

当前视图

正在加载3D地球...

About Starlink 32750

Starlink 32750 (NORAD 62572) is a starlink constellation satellite (v2 mini) launched Jan 10, 2025 by SPXS of US. It operates in LEO, CIRCULAR orbit with a mass of 730.00 kg.

即将过境

Passes for default location (London). Set your location on the main map for personalized predictions.

高度历史

Loading altitude history...

两行轨道根数

1 62572U 25006U 26263.06054959 .00007821 00000-0 29340-3 0 9991
2 62572 42.9995 274.4770 0001390 276.0960 83.9734 15.27583610 94595
Epoch: Sep 20, 2026 • Age: 20 hours

当前状态

高度 493.2 km
远地点 / 近地点 N/A
速度 7.62 km/s
星下点 -37.84°S, 109.63°W
发射日期 Jan 10, 2025
运行时间 1.6 years
类型 internet

技术详情

分类 Payload
质量 730.00 kg
干质量 700.00 kg
长度 0.30 m
跨度 29.00 m
形状 ? Box + pan
制造商 SPXS
平台类型 Starlink V2M
阶段状态 In Orbit
所有者/国家 SPXS/US

Most Searched